Weather in Suturuokha

Russia / Sakha (Yakutia) Republic     68°33′05″N   146°09′46″E
temp.,
°C
wind,
m/s
gust,
m/s
humid.,
%
clouds,
%
prec.,
mm/h
press.,
hPa
HPBL,
m
25 october, mon
mon2523:00−20ne1190100 0.0 100522
02:00−19nne2286100 0.0 100342
05:00−18nne1187100 0.0 100343
08:00−18nne0098100 0.2 100323
11:00−17ssw0094100 0.4 100464
14:00−16ssw119492 0.1 100464
17:00−18se1198100 0.1 10059
20:00−19se1110095 0.0 10069
26 october, tue
tue2623:00−21ese1110060 0.0 10069
02:00−20ese11100100 0.0 100712
05:00−19e119989 0.1 100812
08:00−20e1110074 0.1 100910
11:00−19ese119876 0.1 100928
14:00−16se119383 0.0 100953
17:00−19e1110080 0.0 10109
20:00−21ese1110040 0.0 10119
27 october, wed
wed2723:00−21ese1110041 0.0 10129
02:00−22se1110048 0.0 10129
05:00−22ese1110041 0.0 101310
08:00−22ese11100100 0.0 101310
11:00−21ese119963 0.0 101417
14:00−17e119569 0.0 101318
17:00−19ene119876 0.0 101311
20:00−20e119863 0.0 101310
28 october, thu
thu2823:00−21e119858 0.0 101210
02:00−20ene119787 0.0 101210
05:00−19ene1194100 0.0 101211
08:00−18se1192100 0.0 101114
11:00−15se118598 0.1 101055
14:00−13ese118961 0.1 100936
17:00−18e119454 0.1 100810
20:00−18e1194100 0.0 100711
29 october, fri
fri2923:00−17ese1194100 0.0 100612
02:00−16ese1191100 0.0 100614
05:00−17ene1193100 0.0 100510
08:00−17ese1194100 0.0 10069
11:00−16ssw119299 0.0 100719
14:00−13sw1194100 0.4 100881
17:00−15sw229785 0.6 100920
20:00−18sw2299100 0.0 101014